Other Public Products
Issued by NWS Grand Forks, ND

Home | Current Version | Previous Version | Graphics & Text | Print | Product List | Glossary On
Versions: 1 2 3 4 5 6 7 8 9 10 11 12 13 14 15 16 17 18 19 20 21 22 23 24 25 26 27 28 29 30 31 32 33 34 35 36 37 38 39 40 41 42 43 44 45 46 47 48 49 50
000
FPUS83 KFGF 290331
OPUFGF
PRAIRIE TO PINES WEATHER ROUNDUP
NATIONAL WEATHER SERVICE EASTERN NORTH DAKOTA/GRAND FORKS ND
1000 PM CDT FRI APR 28 2017

 **SATELLITE DATA USED TO AUGMENT SKY COVER AT AUTOMATED STATIONS**
 *****  WEATHER ACROSS EASTERN NORTH DAKOTA  *****

CITY           SKY/WX    TMP DP  RH WIND       PRES   REMARKS
GRAND FORKS    FAIR      38  29  70 N8        30.14R
GRAND FORKS AF FAIR      38  27  64 N5        30.15R
GRAND CITY NWS NOT AVBL
BUXTON           N/A     40  27  60 NW8         N/A
DEVILS LAKE    FAIR      43  22  43 E3        30.16R
FARGO          FAIR      40  27  59 N7        30.13R
WAHPETON ARPT  FAIR      43  23  45 N5        30.15R
$$

 *****  WEATHER ACROSS CENTRAL AND WESTERN NORTH DAKOTA  *****

CITY           SKY/WX    TMP DP  RH WIND       PRES   REMARKS
JAMESTOWN      FAIR      40  26  57 N3        30.14R
BISMARCK       FAIR      49  18  29 NE5       30.16R
MINOT          FAIR      45  17  32 CALM      30.14R
MINOT AFB      FAIR      42  31  64 CALM      30.13R
GARRISON         N/A     41  20  43 W7        30.15R
WILLISTON      MOCLDY    51  21  30 S3        30.13R
DICKINSON      FAIR      39  16  39 E7        30.14R
HETTINGER      FAIR      38  20  48 CALM      30.17R
$$

 *****  OTHER OBSERVATIONS NORTHEAST NORTH DAKOTA  *****

CITY           SKY/WX    TMP DP  RH WIND       PRES   REMARKS
WALHALLA       NOT AVBL
LANGDON        FAIR      37  18  44 E5        30.16R
CAVALIER       FAIR      34  21  60 W3        30.16R
GRAFTON        FAIR      41  18  38 NW6       30.19R
CANDO          NOT AVBL
FORT TOTTEN      N/A     44  12  27 NE3       29.95S
ROLLA          FAIR      37  21  52 CALM      30.16R
RUGBY          NOT AVBL
 ***** THE ABOVE OBSERVATIONS ARE NON NWS ARE NOT QUALITY
        CONTROLLED AND MAY MIS-REPORT RAIN FOR SNOW...
$$

 *****  OTHER OBSERVATIONS SOUTHEAST NORTH DAKOTA *****

CITY           SKY/WX    TMP DP  RH WIND       PRES   REMARKS
COOPERSTOWN    FAIR      37  25  60 NE7       30.17R
VALLEY CITY    FAIR      43  21  42 E5        30.17R
OAKES          NOT AVBL
GWINNER        CLEAR     43  28  56 MISG      30.15R
SHEYENNE NWR     N/A     44  17  33 NE3       29.95S
BUFFALO          N/A     41  17  37 S7          N/A
WYNDMERE         N/A     37  27  65 NW5         N/A
 ***** THE ABOVE OBSERVATIONS ARE NON NWS ARE NOT QUALITY
       CONTROLLED AND MAY MIS-REPORT RAIN FOR SNOW...
$$

  *****  WEATHER ACROSS NORTHERN MINNESOTA  *****

CITY           SKY/WX    TMP DP  RH WIND       PRES   REMARKS
FLAG ISLAND    FAIR      37  25  60 SW3       30.12R
WARROAD        FAIR      34  21  60 W5        30.14R
ROSEAU         FAIR      37  16  41 NW5       30.14R
HALLOCK        FAIR      39  18  41 CALM      30.16R
THF RVR FALLS  FAIR      40  21  46 CALM      30.15R
HALSTAD          N/A     35  28  76 N8          N/A
FOSSTON        FAIR      30  19  64 CALM      30.15R
BAUDETTE       FAIR      33  22  63 CALM      30.11R
WASKISH        FAIR      30  27  86 CALM      30.14R
CROOKSTON      FAIR      39  30  70 N5        30.16R
$$
  *****  WEATHER ACROSS CENTRAL AND WEST MINNESOTA  *****

CITY           SKY/WX    TMP DP  RH WIND       PRES   REMARKS
BEMIDJI        FAIR      33  19  56 CALM      30.14R
PARK RAPIDS    FAIR      37  18  46 N6        30.12R
WADENA         FAIR      37  21  52 N6        30.13R
DETROIT LAKES  FAIR      41  23  48 NE3       30.14R
MOORHEAD       FAIR      39  25  56 N6        30.15R
FERGUS FALLS   FAIR      39  21  48 NE3       30.14R
ELBOW LAKE     FAIR      38  30  71 N3        30.14R
MORRIS MN      FAIR      41  25  52 N7        30.12R
STAPLES        FAIR      37  19  48 CALM      30.13R
WHEATON        FAIR      41  25  52 N5        30.16R
$$
  *****  WEATHER ELSEWHERE ACROSS MINNESOTA  *****

CITY           SKY/WX    TMP DP  RH WIND       PRES   REMARKS
DULUTH         FAIR      37  26  64 N7        30.11R
INTRNTL FALLS  FAIR      29  23  78 CALM      30.11R
ELY            FAIR      28  25  86 CALM      30.11R
CLOQUET        FAIR      37  23  56 N6        30.12R
BRAINERD       FAIR      39  20  46 N8        30.11R
HIBBING        FAIR      27  23  85 CALM      30.11R
ALEXANDRIA     FAIR      41  24  51 N8        30.12R
SAINT CLOUD    FAIR      42  25  50 N7        30.10R
MINNEAPOLIS    MOCLDY    46  28  49 VRB3      30.09R
$$

  *****  WEATHER ACROSS SOUTH DAKOTA  *****

CITY           SKY/WX    TMP DP  RH WIND       PRES   REMARKS
SIOUX FALLS    FAIR      42  28  57 N9        30.10R
BROOKINGS      FAIR      38  24  57 CALM      30.12R
WATERTOWN      FAIR      38  19  46 N5        30.11R
HURON          FAIR      39  21  48 NE6       30.14R
SISSETON         N/A     34  23  64 NE9       30.12R
ABERDEEN       FAIR      38  21  50 CALM      30.14R
MITCHELL       FAIR      39  24  55 NE8       30.13R
PIERRE         FAIR      43  18  36 NE5       30.14R
MOBRIDGE       FAIR      46  13  26 NE7       30.13R
RAPID CITY     FAIR      36  28  73 NE6       30.15R
$$

  *****  SOME WEATHER IN NEARBY STATES *****

CITY           SKY/WX    TMP DP  RH WIND       PRES   REMARKS
GLASGOW MT     FAIR      45  34  65 NW9       30.13R
GREAT FALLS MT FAIR      35  32  88 S5        30.15R
CHEYENNE WY    CLOUDY    27  25  92 NE12      30.07R FOG     WCI  17
SCOTTSBLUFF NE CLOUDY    35  32  88 CALM      30.14R
OMAHA NE       CLOUDY    43  37  79 N8        30.03R
DES MOINES IA  CLOUDY    45  38  76 NE13      30.01R
DAVENPORT IA   CLOUDY    45  44  97 NE18      29.97R
CHICAGO IL     CLOUDY    50  40  68 NE13      29.97R
EAU CLAIRE WI  FAIR      39  30  70 CALM      30.08R
LA CROSSE WI   CLOUDY    46  34  62 N6        30.06R
$$

  *****  SOME NATIONAL WEATHER *****

CITY           SKY/WX    TMP DP  RH WIND       PRES   REMARKS
LA GUARDIA NY  FAIR      75  45  34 SW10      30.03S
RALEIGH NC     FAIR      79  68  69 S10       30.09R
ATLANTA GA     MOCLDY    76  67  73 SE5       30.09R
NEW ORLEANS LA MOCLDY    79  74  84 SE13      29.93R
OKLAHOMA CITY  CLOUDY    70  62  76 E13       29.67R
ALBUQUERQUE NM LGT RAIN  40  38  93 E5        29.81R
SALT LAKE CITY CLOUDY    44  36  73 N14       29.99R
LOS ANGELES CA FAIR      75  25  15 N15G32    29.75S
BOISE ID       FAIR      52  29  41 NW20      30.10R
SEATTLE WA     MOCLDY    56  36  47 W5        30.32S
$$

*** WEATHER ACROSS MANITOBA...SASKATCHEWAN AND ONTARIO ***
                ***ONTARIO***

CITY           SKY/WX    TMP DP  RH WIND       PRES   REMARKS
GERALDTON      FLURRIES  28  23  80 NW17G24   29.91R WCI  16
THUNDER BAY    MOCLDY    30  25  80 W6        30.08  WCI  24
SIOUX LOOKOUT  CLOUDY    32  25  74 N2        30.08R
TORONTO        MOCLDY    59  43  55 SW5       29.94F
BIG TROUT LK   PTCLDY    30   7  37 N6        30.01R WCI  24
PICKLE LAKE    NOT AVBL
DRYDEN         CLOUDY    37  16  41 NW5       30.09R
KENORA         PTCLDY    41  12  30 N6        30.10R
$$
                *** MANITOBA***

CITY           SKY/WX    TMP DP  RH WIND       PRES   REMARKS
BRANDON        PTCLDY    36  19  51 NE7       30.15R
DAUPHIN        CLEAR     39  14  35 CALM      30.15R
ISLAND LAKE    MOCLDY    36  10  35 N3        30.13R
PILOT MOUND      N/A     36  21  55 E3          N/A
THE PAS        PTCLDY    43  12  28 E5        30.13R
THOMPSON       MOCLDY    36  25  64 NE12      30.17R
WINNIPEG       PTCLDY    36  16  44 N5        30.16R
LYNN LAKE      MOCLDY    39  23  52 E5        30.17R
CHURCHILL      MOCLDY    18  14  86 N18G26    30.29R WCI   2
GILLAM         CLOUDY    23  19  86 NE13      30.22R WCI  11
$$
                ***SASKATCHEWAN***

CITY           SKY/WX    TMP DP  RH WIND       PRES   REMARKS
ESTEVAN        PTCLDY    45  30  57 SE7       30.12R
KINDERSLEY     PTCLDY    34  32  93 NW5       30.10R
LLOYDMINSTER   PTCLDY    39  28  65 SW6       30.08R
PRINCE ALBERT  MOCLDY    45  21  39 E7        30.07R
REGINA         MOCLDY    43  34  70 NW8       30.12R
YORKTON        CLEAR     43  25  49 SE10      30.08R



USA.gov is the U.S. government's official web portal to all federal, state and local government web resources and services.